This is the latest recevied weather packets stored in our database for station/object KC1OHT-13. If no packets are shown the sender has not sent any weather packets the latest 1 day(s).
| Time | Temp. | Humidity | Pressure | Rain* | Wind** | Luminosity | Snow |
|---|---|---|---|---|---|---|---|
| 1778108301 | 13.89° C | 96% | 1004 hPa | 0 mm | - | 6 W/m² | - |
| 1778107089 | 13.89° C | 95% | 1004.3 hPa | 0 mm | - | 11 W/m² | - |
| 1778106176 | 14.44° C | 94% | 1004.4 hPa | 0 mm | - | 13 W/m² | - |
| 1778104656 | 15° C | 93% | 1004.7 hPa | 0 mm | - | 33 W/m² | - |
| 1778104048 | 15° C | 92% | 1004.7 hPa | 0 mm | - | 34 W/m² | - |
| 1778103745 | 15° C | 92% | 1004.8 hPa | 0 mm | - | 28 W/m² | - |
| 1778103443 | 15° C | 91% | 1004.8 hPa | 0 mm | - | 37 W/m² | - |
| 1778102837 | 15° C | 91% | 1004.9 hPa | 0 mm | - | 57 W/m² | - |
| 1778102532 | 15° C | 91% | 1004.8 hPa | 0 mm | - | 31 W/m² | - |
| 1778101919 | 15° C | 90% | 1004.9 hPa | 0 mm | - | 47 W/m² | - |
| 1778101616 | 15° C | 90% | 1005.1 hPa | 0 mm | - | 52 W/m² | - |
| 1778101313 | 15° C | 89% | 1004.8 hPa | 0 mm | - | 49 W/m² | - |
| 1778100408 | 15.56° C | 87% | 1005.1 hPa | 0 mm | - | 23 W/m² | - |
| 1778051318 | 16.11° C | 78% | 1007.8 hPa | 0 mm | - | 0 W/m² | - |
| 1778051015 | 16.11° C | 78% | 1007.8 hPa | 0 mm | - | 0 W/m² | - |
| 1778050712 | 16.11° C | 77% | 1007.7 hPa | 0 mm | - | 0 W/m² | - |
| 1778050410 | 16.11° C | 77% | 1007.5 hPa | 0 mm | - | 0 W/m² | - |
| 1778048895 | 15.56° C | 77% | 1007.7 hPa | 0 mm | - | 0 W/m² | - |
| 1778048288 | 15.56° C | 77% | 1007.6 hPa | 0 mm | - | 0 W/m² | - |
| 1778047985 | 15.56° C | 77% | 1007.6 hPa | 0 mm | - | 0 W/m² | - |
| 1778047077 | 15.56° C | 77% | 1007.8 hPa | 0 mm | - | 0 W/m² | - |
| 1778046168 | 15.56° C | 77% | 1007.8 hPa | 0 mm | - | 0 W/m² | - |
| 1778044050 | 15.56° C | 74% | 1008.2 hPa | 0 mm | - | 0 W/m² | - |
| 1778043747 | 15.56° C | 73% | 1008.5 hPa | 0 mm | - | 0 W/m² | - |
| 1778043444 | 16.11° C | 73% | 1008.4 hPa | 0 mm | - | 0 W/m² | - |
* Rain latest hour (hover to see other rain measurements)
** Current wind speed in m/s (hover to see current wind gust speed)